• In Netherlands
  • List of Countries
  • For 7 days
  • Water Temperature
  • Satellite Maps
  • Weather Map
  • Weather Widgets
  • user-avatar
    Login

    Hourly Weather Toledo

    Today, 19 January, Friday

    Time Temperature Precipitation Wind Pressure Humidity
    00:00 -8°C° 0 mm 7 mps 746 mmHg 83%
    01:00 -9°C° 0 mm 6 mps 746 mmHg 84%
    02:00 -9°C° 0 mm 6 mps 745 mmHg 85%
    03:00 -9°C° 0 mm 6 mps 745 mmHg 85%
    04:00 -9°C° 0 mm 6 mps 745 mmHg 86%
    05:00 -9°C° 0 mm 6 mps 746 mmHg 87%
    06:00 -9°C° 0 mm 6 mps 746 mmHg 87%
    07:00 -9°C° 0 mm 6 mps 746 mmHg 86%
    08:00 -9°C° 0 mm 6 mps 746 mmHg 84%
    09:00 -8°C° 0 mm 7 mps 746 mmHg 82%
    10:00 -7°C° 0 mm 7 mps 745 mmHg 81%
    11:00 -6°C° 0 mm 7 mps 745 mmHg 79%
    12:00 -4°C° 0 mm 7 mps 745 mmHg 77%
    13:00 -4°C° 0 mm 7 mps 744 mmHg 77%
    14:00 -3°C° 0 mm 7 mps 744 mmHg 77%
    15:00 -3°C° 0 mm 7 mps 743 mmHg 77%
    16:00 -3°C° 0 mm 7 mps 743 mmHg 80%
    17:00 -4°C° 0 mm 7 mps 743 mmHg 82%
    18:00 -4°C° 0 mm 7 mps 743 mmHg 84%
    19:00 -5°C° 0 mm 8 mps 743 mmHg 84%
    20:00 -5°C° 0 mm 8 mps 743 mmHg 84%
    21:00 -5°C° 0 mm 8 mps 743 mmHg 84%
    22:00 -5°C° 0 mm 8 mps 742 mmHg 84%
    23:00 -5°C° 0 mm 8 mps 742 mmHg 84%

    Tomorrow, 20 January, Saturday

    Time Temperature Precipitation Wind Pressure Humidity
    00:00 -5°C° 0 mm 8 mps 742 mmHg 84%
    01:00 -5°C° 0 mm 8 mps 743 mmHg 84%
    02:00 -4°C° 0 mm 7 mps 743 mmHg 85%
    03:00 -4°C° 0 mm 7 mps 743 mmHg 85%
    04:00 -4°C° 0 mm 7 mps 743 mmHg 86%
    05:00 -5°C° 0 mm 6 mps 744 mmHg 87%
    06:00 -5°C° 0 mm 6 mps 744 mmHg 88%
    07:00 -4°C° 0 mm 6 mps 744 mmHg 88%
    08:00 -4°C° 0 mm 6 mps 745 mmHg 88%
    09:00 -4°C° 0 mm 6 mps 745 mmHg 88%
    10:00 -3°C° 0 mm 6 mps 745 mmHg 88%
    11:00 -2°C° 0 mm 6 mps 745 mmHg 88%
    12:00 -2°C° 0 mm 6 mps 745 mmHg 88%
    13:00 -2°C° 0 mm 6 mps 745 mmHg 89%
    14:00 -1°C° 0 mm 5 mps 745 mmHg 90%
    15:00 -1°C° 0 mm 5 mps 745 mmHg 90%
    16:00 -1°C° 0 mm 5 mps 746 mmHg 91%
    17:00 -1°C° 0 mm 5 mps 746 mmHg 91%
    18:00 -1°C° 0 mm 4 mps 747 mmHg 92%
    19:00 -1°C° 0 mm 4 mps 747 mmHg 93%
    20:00 -1°C° 0 mm 4 mps 747 mmHg 93%
    21:00 -1°C° 0 mm 4 mps 747 mmHg 94%
    22:00 -1°C° 0 mm 4 mps 747 mmHg 94%
    23:00 -1°C° 0 mm 4 mps 747 mmHg 95%

    Day after tomorrow, 21 January, Sunday

    Time Temperature Precipitation Wind Pressure Humidity
    00:00 -1°C° 0 mm 4 mps 747 mmHg 95%
    01:00 0°C° 0 mm 4 mps 747 mmHg 96%
    02:00 +1°C° 0 mm 3 mps 747 mmHg 96%
    03:00 +1°C° 0 mm 3 mps 747 mmHg 97%
    04:00 +1°C° 0 mm 3 mps 747 mmHg 97%
    05:00 +1°C° 0 mm 3 mps 747 mmHg 97%
    06:00 +1°C° 0 mm 3 mps 747 mmHg 97%
    07:00 +1°C° 0 mm 3 mps 747 mmHg 97%
    08:00 +1°C° 0 mm 3 mps 747 mmHg 98%
    09:00 +1°C° 0 mm 3 mps 747 mmHg 98%
    10:00 +2°C° 0 mm 3 mps 747 mmHg 98%
    11:00 +2°C° 0 mm 3 mps 747 mmHg 98%
    12:00 +2°C° 0 mm 3 mps 746 mmHg 98%
    13:00 +2°C° 0.1 mm 3 mps 746 mmHg 98%
    14:00 +2°C° 0.1 mm 3 mps 746 mmHg 98%
    15:00 +3°C° 0.1 mm 3 mps 746 mmHg 98%
    16:00 +2°C° 0.1 mm 3 mps 746 mmHg 98%
    17:00 +2°C° 0.1 mm 3 mps 746 mmHg 98%
    18:00 +2°C° 0.1 mm 3 mps 746 mmHg 98%
    19:00 +2°C° 0 mm 3 mps 746 mmHg 97%
    20:00 +1°C° 0 mm 4 mps 746 mmHg 97%
    21:00 +1°C° 0 mm 4 mps 745 mmHg 97%
    22:00 +1°C° 0 mm 4 mps 745 mmHg 97%
    23:00 +1°C° 0 mm 4 mps 745 mmHg 97%

    22 January, Monday

    Time Temperature Precipitation Wind Pressure Humidity
    00:00 +1°C° 0 mm 4 mps 744 mmHg 97%
    01:00 +3°C° 0.3 mm 4 mps 744 mmHg 97%
    02:00 +3°C° 0.3 mm 4 mps 743 mmHg 97%
    03:00 +3°C° 0.3 mm 4 mps 742 mmHg 96%
    04:00 +3°C° 0.7 mm 4 mps 742 mmHg 95%
    05:00 +3°C° 0.7 mm 5 mps 741 mmHg 93%
    06:00 +3°C° 0.7 mm 5 mps 740 mmHg 92%
    07:00 +4°C° 3.1 mm 6 mps 740 mmHg 92%
    08:00 +4°C° 3.1 mm 7 mps 740 mmHg 92%
    09:00 +5°C° 3.1 mm 8 mps 739 mmHg 92%
    10:00 +6°C° 1.1 mm 8 mps 738 mmHg 91%
    11:00 +6°C° 1.1 mm 9 mps 737 mmHg 90%
    12:00 +6°C° 1.1 mm 9 mps 736 mmHg 89%
    13:00 +7°C° 0.1 mm 9 mps 736 mmHg 88%
    14:00 +7°C° 0.1 mm 8 mps 735 mmHg 88%
    15:00 +7°C° 0.1 mm 8 mps 734 mmHg 87%
    16:00 +6°C° 0.1 mm 8 mps 734 mmHg 83%
    17:00 +5°C° 0.1 mm 8 mps 735 mmHg 79%
    18:00 +4°C° 0.1 mm 8 mps 735 mmHg 76%
    19:00 +2°C° 0 mm 8 mps 735 mmHg 75%
    20:00 +1°C° 0 mm 8 mps 735 mmHg 75%
    21:00 0°C° 0 mm 8 mps 735 mmHg 74%
    22:00 0°C° 0 mm 9 mps 735 mmHg 75%
    23:00 0°C° 0 mm 10 mps 735 mmHg 75%

    23 January, Tuesday

    Time Temperature Precipitation Wind Pressure Humidity
    00:00 0°C° 0 mm 10 mps 735 mmHg 75%
    01:00 -2°C° 0 mm 10 mps 735 mmHg 75%
    02:00 -2°C° 0 mm 10 mps 736 mmHg 75%
    03:00 -3°C° 0 mm 10 mps 736 mmHg 74%
    04:00 -3°C° 0 mm 10 mps 737 mmHg 75%
    05:00 -3°C° 0 mm 9 mps 738 mmHg 75%
    06:00 -4°C° 0 mm 9 mps 739 mmHg 75%
    07:00 -4°C° 0 mm 9 mps 740 mmHg 73%
    08:00 -4°C° 0 mm 9 mps 741 mmHg 71%
    09:00 -4°C° 0 mm 9 mps 742 mmHg 69%
    10:00 -3°C° 0 mm 9 mps 743 mmHg 68%
    11:00 -3°C° 0 mm 9 mps 743 mmHg 66%
    12:00 -3°C° 0 mm 9 mps 744 mmHg 65%
    13:00 -3°C° 0 mm 9 mps 744 mmHg 65%
    14:00 -2°C° 0 mm 8 mps 745 mmHg 65%
    15:00 -4°C° 0 mm 8 mps 745 mmHg 65%
    16:00 -4°C° 0 mm 8 mps 746 mmHg 66%
    17:00 -4°C° 0 mm 7 mps 747 mmHg 67%
    18:00 -4°C° 0 mm 7 mps 747 mmHg 69%
    19:00 -4°C° 0 mm 7 mps 748 mmHg 69%
    20:00 -4°C° 0 mm 6 mps 748 mmHg 69%
    21:00 -4°C° 0 mm 6 mps 748 mmHg 68%
    22:00 -5°C° 0 mm 6 mps 749 mmHg 69%
    23:00 -5°C° 0 mm 6 mps 749 mmHg 70%

    24 January, Wednesday

    Time Temperature Precipitation Wind Pressure Humidity
    00:00 -5°C° 0 mm 5 mps 749 mmHg 71%
    01:00 -5°C° 0 mm 5 mps 750 mmHg 70%
    02:00 -5°C° 0 mm 5 mps 750 mmHg 70%
    03:00 -5°C° 0 mm 5 mps 750 mmHg 69%
    04:00 -6°C° 0 mm 5 mps 751 mmHg 68%
    05:00 -6°C° 0 mm 5 mps 751 mmHg 67%
    06:00 -6°C° 0 mm 5 mps 752 mmHg 66%
    07:00 -6°C° 0 mm 5 mps 753 mmHg 64%
    08:00 -4°C° 0 mm 4 mps 753 mmHg 62%
    09:00 -4°C° 0 mm 4 mps 754 mmHg 60%
    10:00 -4°C° 0 mm 4 mps 754 mmHg 56%
    11:00 -2°C° 0 mm 3 mps 754 mmHg 53%
    12:00 -2°C° 0 mm 3 mps 754 mmHg 50%
    13:00 -1°C° 0 mm 3 mps 754 mmHg 49%
    14:00 -1°C° 0 mm 3 mps 754 mmHg 49%
    15:00 -1°C° 0 mm 2 mps 754 mmHg 49%
    16:00 -2°C° 0 mm 2 mps 754 mmHg 53%
    17:00 -3°C° 0 mm 2 mps 754 mmHg 57%
    18:00 -1°C° 0 mm 1 mps 754 mmHg 61%
    19:00 -1°C° 0 mm 1 mps 755 mmHg 62%
    20:00 -1°C° 0 mm 1 mps 755 mmHg 62%
    21:00 -2°C° 0 mm 1 mps 755 mmHg 63%
    22:00 -2°C° 0 mm 1 mps 755 mmHg 63%
    23:00 -2°C° 0 mm 1 mps 755 mmHg 63%
    Show more